This is the latest recevied weather packets stored in our database for station/object N0HOT. If no packets are shown the sender has not sent any weather packets the latest 10 day(s).
| Time | Temp. | Humidity | Pressure | Rain* | Wind** | Luminosity | Snow |
|---|---|---|---|---|---|---|---|
| 1778117498 | 6.11° C | 45% | 1016.7 hPa | 0 mm | - | 0 W/m² | - |
| 1778117196 | 6.11° C | 44% | 1016.7 hPa | 0 mm | - | 0 W/m² | - |
| 1778116891 | 6.67° C | 43% | 1016.3 hPa | 0 mm | - | 0 W/m² | - |
| 1778116590 | 6.67° C | 44% | 1016.3 hPa | 0 mm | - | 1 W/m² | - |
| 1778116286 | 6.67° C | 43% | 1016.7 hPa | 0 mm | - | 2 W/m² | - |
| 1778115980 | 7.22° C | 42% | 1016.7 hPa | 0 mm | - | 4 W/m² | - |
| 1778115676 | 7.22° C | 41% | 1016.7 hPa | 0 mm | - | 5 W/m² | - |
| 1778115374 | 7.22° C | 41% | 1016.3 hPa | 0 mm | - | 8 W/m² | - |
| 1778115070 | 7.78° C | 42% | 1016.7 hPa | 0 mm | - | 10 W/m² | - |
| 1778114767 | 7.78° C | 41% | 1016.3 hPa | 0 mm | - | 13 W/m² | - |
| 1778114464 | 7.78° C | 41% | 1016.3 hPa | 0 mm | - | 16 W/m² | - |
| 1778114160 | 7.78° C | 39% | 1016.3 hPa | 0 mm | - | 18 W/m² | - |
| 1778113856 | 7.78° C | 38% | 1016.7 hPa | 0 mm | - | 23 W/m² | - |
| 1778113552 | 7.78° C | 39% | 1016.7 hPa | 0 mm | - | 31 W/m² | - |
| 1778113248 | 7.78° C | 38% | 1016.3 hPa | 0 mm | - | 28 W/m² | - |
| 1778112945 | 7.78° C | 38% | 1016.3 hPa | 0 mm | - | 38 W/m² | - |
| 1778112643 | 7.78° C | 40% | 1016.3 hPa | 0 mm | - | 36 W/m² | - |
| 1778112338 | 7.78° C | 39% | 1016.3 hPa | 0 mm | - | 42 W/m² | - |
| 1778112034 | 7.78° C | 39% | 1016.3 hPa | 0 mm | - | 64 W/m² | - |
| 1778111732 | 7.78° C | 39% | 1016.3 hPa | 0 mm | - | 56 W/m² | - |
| 1778111427 | 7.78° C | 41% | 1016.3 hPa | 0 mm | - | 54 W/m² | - |
| 1778111125 | 7.78° C | 38% | 1016.3 hPa | 0 mm | - | 44 W/m² | - |
| 1778110817 | 7.78° C | 39% | 1016 hPa | 0 mm | - | 62 W/m² | - |
| 1778110513 | 7.78° C | 39% | 1016 hPa | 0 mm | - | 61 W/m² | - |
| 1778110210 | 7.78° C | 39% | 1016.3 hPa | 0 mm | - | 67 W/m² | - |
* Rain latest hour (hover to see other rain measurements)
** Current wind speed in m/s (hover to see current wind gust speed)